Wind_Speed
39 41 37 37 38 38 37 37 39 39 35 34 33 30 29 21 20 21 24 24 19 17 16 14 17 14 13 11 13 12 12 13 11 11 11 11 13 12 11 10 14 20 17 20 20 21 22
38 37 37 37 37 35 36 37 38 37 36 35 33 31 30 27 24 22 19 19 23 22 20 20 18 17 13 10 11 12 12 14 13 14 14 13 13 11 13 12 14 16 17 18 21 23 24
38 37 36 37 35 34 33 34 34 34 33 32 31 31 31 31 32 27 24 24 22 23 24 26 22 19 17 14 9 8 13 15 15 15 17 14 12 12 13 10 14 12 12 12 10 10 17
37 37 36 36 35 35 35 34 34 35 33 33 31 31 31 32 31 29 29 24 21 24 27 29 26 22 20 17 16 13 15 16 17 16 15 16 13 12 13 11 12 10 10 0 4 4 6
36 36 36 36 35 35 36 36 35 36 35 34 33 31 32 32 30 30 29 30 28 30 30 28 26 23 22 20 14 11 8 10 12 13 15 15 13 11 12 11 10 6 5 4 5 3 1
37 37 36 35 36 35 35 35 35 34 35 36 35 33 32 32 33 34 37 32 33 30 32 27 33 30 24 21 14 8 9 15 14 13 12 12 14 14 13 11 4 6 4 7 10 7 6
38 36 36 36 36 35 35 34 33 32 33 33 33 32 31 31 33 34 34 36 34 31 34 38 30 28 29 22 23 20 20 18 17 15 14 13 17 17 7 10 10 11 13 12 11 11 7
37 36 35 34 33 32 32 32 31 30 30 31 31 30 29 30 28 31 34 36 36 33 37 31 36 38 33 33 31 26 21 19 20 17 16 20 23 9 12 13 12 13 15 16 16 12 10
34 32 30 29 27 26 26 26 25 25 26 26 27 27 29 27 28 29 30 31 31 34 40 51 41 41 32 31 35 31 25 22 21 20 22 26 15 12 9 12 15 16 17 17 13 15 16
32 30 28 27 26 25 24 23 23 23 23 24 24 25 25 23 28 27 26 22 26 26 22 43 44 51 44 36 40 37 31 27 26 24 20 22 23 24 20 19 18 21 20 14 12 13 12
31 29 28 27 26 25 24 24 23 23 23 24 25 27 24 23 24 20 19 19 19 14 1 14 16 24 27 36 42 37 29 32 33 27 23 19 13 18 24 25 21 21 17 19 19 16 15
30 28 28 27 26 27 28 28 27 27 27 27 27 30 28 27 25 21 20 16 14 10 10 9 14 15 18 22 31 25 20 30 25 24 27 30 20 14 19 23 22 17 16 15 18 16 7
31 30 30 30 31 31 30 29 28 29 28 28 27 29 31 29 26 20 20 18 12 10 14 20 19 16 17 19 25 21 24 36 31 25 34 31 32 26 19 17 15 15 10 2 1 4 5
34 33 32 32 31 31 30 29 30 30 29 27 24 27 31 30 27 24 23 18 10 20 33 14 9 21 26 27 27 29 24 38 36 24 8 20 12 31 30 31 20 20 20 8 4 3 3
36 35 34 34 34 33 32 31 30 29 30 28 28 31 35 33 30 26 25 26 22 33 34 35 33 18 27 28 25 30 32 38 39 35 20 9 14 15 21 26 21 14 24 15 7 9 2
39 37 36 36 34 34 33 31 30 30 29 29 32 34 38 35 33 29 33 36 40 41 37 17 24 25 20 29 26 27 24 30 40 34 33 16 7 13 20 16 22 13 18 12 8 2 4
40 38 37 36 35 35 33 33 33 31 27 30 34 38 43 37 33 37 45 53 49 46 39 36 29 20 23 26 32 33 25 23 13 23 27 33 15 12 23 21 23 23 17 8 10 5 4
38 38 37 36 36 35 35 34 33 31 30 31 35 41 45 43 39 48 55 56 48 44 42 41 36 34 33 22 29 37 32 28 17 23 26 31 18 15 26 18 16 13 24 23 10 5 4
39 39 37 36 36 36 34 33 32 29 27 29 34 40 43 47 47 55 56 56 52 46 44 34 34 33 30 36 16 34 37 28 25 19 22 28 19 10 12 17 15 17 18 23 21 15 7
39 39 36 35 36 34 32 31 30 27 22 21 26 27 35 45 50 52 53 53 56 50 41 30 34 33 22 24 36 21 22 31 28 21 23 25 22 21 21 18 22 16 17 19 20 12 10
37 36 34 33 33 31 30 30 29 24 17 21 33 37 39 50 56 47 46 47 49 48 53 40 36 36 36 23 28 30 28 33 27 28 25 19 22 22 9 9 24 22 22 19 17 15 12
32 32 31 29 29 29 29 28 25 22 18 24 41 40 26 38 55 50 52 47 45 47 41 46 43 33 30 37 38 34 36 36 35 26 26 23 20 19 18 10 11 19 17 14 15 15 16
29 28 26 26 27 28 28 25 24 22 19 26 35 22 21 40 33 44 48 48 40 35 37 37 38 36 38 38 34 35 34 27 27 31 25 20 22 16 13 13 12 12 18 17 21 19 14
29 25 24 24 26 26 25 23 22 24 21 22 21 10 25 32 26 56 36 36 43 38 33 35 33 38 39 31 25 21 15 18 21 15 19 26 28 14 9 15 4 10 14 22 20 17 17
28 24 22 20 21 23 23 22 22 27 26 22 30 16 20 36 17 49 44 33 34 27 29 31 37 35 30 24 25 19 18 18 15 15 16 22 25 11 9 13 3 12 15 20 22 20 19
26 23 20 18 18 20 22 21 21 23 25 27 24 17 15 23 40 25 41 33 37 33 31 26 24 26 33 32 29 12 11 13 11 11 20 18 17 14 12 4 6 7 12 15 12 16 17
25 21 18 18 18 19 18 17 18 16 18 16 19 27 17 13 22 29 32 40 39 37 35 31 31 28 28 30 23 15 6 18 14 17 28 21 18 18 10 4 5 7 8 9 8 7 6
26 21 16 16 19 18 19 18 21 18 19 16 19 22 24 22 19 25 36 41 39 42 44 38 36 33 26 29 18 14 10 18 14 22 27 26 18 15 15 6 8 11 12 12 7 6 4
21 17 15 16 14 27 26 15 18 21 20 18 16 24 23 23 21 17 35 30 35 36 43 38 39 34 24 21 14 17 10 17 19 18 17 23 20 14 14 11 11 7 16 12 10 7 6
Wind_Direction
257 257 258 258 259 260 260 263 266 272 271 267 265 264 269 264 266 269 270 275 273 270 275 285 295 301 304 287 268 266 270 276 276 279 277 275 272 273 267 246 229 238 246 240 254 258 264
254 256 257 257 256 258 259 261 263 263 265 264 264 266 266 264 266 264 264 269 271 268 267 274 286 295 302 309 296 287 272 270 278 280 281 271 265 260 259 263 254 252 261 260 258 259 263
254 255 256 256 258 259 258 259 260 263 263 261 261 264 262 263 266 261 261 270 268 260 266 265 274 284 282 285 288 302 286 278 277 276 276 273 261 256 265 264 259 267 268 268 281 265 248
253 253 254 254 255 257 257 256 257 258 258 260 261 260 262 262 260 256 254 262 262 260 265 267 266 270 277 274 283 282 284 289 281 272 268 273 265 257 258 255 259 267 279 141 103 95 160
248 250 251 251 251 251 252 253 253 254 255 255 255 254 255 258 256 252 250 252 263 263 263 259 266 264 271 275 268 272 276 287 289 278 264 259 262 259 259 256 262 241 187 236 159 122 98
248 248 248 250 249 250 251 251 252 254 255 255 256 255 252 250 252 250 248 251 256 249 259 259 270 265 262 262 261 251 272 285 279 268 260 256 256 250 246 245 219 186 228 208 213 183 275
247 247 249 248 250 250 251 253 254 255 256 257 257 258 257 254 251 252 252 246 249 254 258 256 259 267 260 254 263 270 276 280 266 260 262 253 245 251 230 224 238 251 256 261 244 283 256
247 247 248 250 251 252 254 254 255 256 259 261 261 261 261 260 259 255 254 248 246 249 255 256 258 249 250 262 263 258 266 269 267 268 252 247 255 239 220 234 251 252 252 261 277 272 254
245 247 247 249 251 251 253 255 256 256 256 257 258 259 260 263 260 255 255 260 264 262 260 256 250 255 252 245 262 263 265 261 261 253 250 252 254 210 231 237 244 250 258 269 274 257 267
245 244 244 244 244 244 243 245 247 249 252 254 254 254 255 255 257 260 261 258 258 264 271 266 262 258 251 249 261 263 261 256 249 255 250 254 251 234 246 251 248 257 261 257 259 250 253
238 237 236 235 237 239 242 244 246 250 251 255 258 259 258 254 255 255 254 247 246 245 289 268 259 249 249 240 251 259 260 244 243 246 232 234 234 232 234 247 254 257 253 249 252 253 258
228 229 232 237 241 244 248 249 251 253 253 253 255 259 259 259 259 258 255 243 211 174 232 253 260 251 236 229 229 233 228 224 236 233 232 236 217 232 244 249 252 244 248 256 251 253 251
231 232 238 244 247 249 250 251 254 254 253 252 251 255 259 259 259 251 244 229 176 207 229 251 241 241 250 241 235 227 227 209 208 211 230 235 237 232 235 232 228 221 236 287 106 193 218
234 240 245 248 248 247 248 249 253 255 256 253 247 246 253 252 252 248 234 200 196 225 224 234 236 248 238 242 237 216 221 213 212 222 223 231 239 228 223 229 227 228 209 181 216 204 246
239 241 243 244 246 248 248 250 253 255 253 251 245 242 246 253 247 236 217 200 215 227 244 235 234 270 238 231 230 212 216 220 220 219 222 221 239 245 229 233 218 200 213 223 239 275 244
236 239 242 244 246 249 251 252 252 252 252 250 248 246 246 248 244 223 209 219 231 252 240 222 237 236 234 222 216 208 210 230 229 230 231 227 273 229 197 199 197 192 200 186 196 174 244
236 238 240 242 246 249 252 254 253 252 250 250 247 246 250 241 232 206 214 234 241 243 234 225 231 232 242 235 230 222 219 227 234 228 217 226 241 203 198 198 197 201 196 193 196 205 185
238 239 240 242 247 250 252 254 254 256 251 246 246 246 250 247 217 217 233 236 233 241 241 240 242 242 243 232 235 227 225 226 227 219 212 223 231 227 210 218 230 223 226 208 199 195 205
235 237 239 242 248 251 253 255 257 260 263 256 248 247 250 250 234 226 234 233 234 238 237 238 231 232 239 240 228 230 224 226 232 215 218 207 214 220 200 218 225 212 214 219 215 223 220
227 233 236 241 245 250 253 256 256 260 258 245 238 227 219 222 250 244 228 224 230 230 226 227 231 229 234 239 224 221 222 217 228 211 213 216 222 224 223 218 196 200 201 210 217 207 219
224 229 233 235 242 249 250 252 255 253 244 238 234 227 225 218 224 234 234 227 222 228 225 228 233 229 228 231 212 213 209 207 212 222 218 209 221 229 227 208 206 227 207 200 211 232 233
218 222 229 235 241 244 245 246 249 252 237 236 225 229 221 214 212 217 216 223 223 224 221 216 222 221 229 226 221 212 214 214 213 205 209 212 223 240 224 210 200 205 207 216 235 239 249
211 218 227 234 237 239 242 240 244 241 230 242 225 257 246 218 221 209 214 217 218 224 218 228 223 228 227 227 228 227 221 211 206 204 213 232 208 213 201 205 200 206 222 233 238 240 240
210 217 228 234 234 236 239 240 239 229 235 233 216 274 229 215 219 210 216 214 216 221 226 223 224 231 225 220 205 209 219 219 231 227 239 232 212 209 183 182 210 237 223 225 240 247 245
207 215 226 233 232 235 235 237 231 228 216 225 220 241 236 214 215 206 213 209 207 204 212 224 221 218 223 208 187 173 174 183 192 204 206 208 192 183 179 199 212 229 216 216 221 233 243
205 212 224 223 224 226 231 229 229 235 235 234 229 235 245 232 222 220 216 208 206 204 217 190 189 181 176 178 171 164 175 174 178 184 183 189 206 205 187 170 198 224 207 209 227 242 240
201 209 214 216 222 221 220 210 209 217 235 234 227 233 223 220 226 219 213 211 213 221 200 182 181 181 189 176 172 173 170 178 167 175 183 198 201 206 198 199 236 214 206 190 197 267 230
201 202 206 213 217 205 186 196 191 196 213 213 202 202 212 218 222 221 220 210 214 214 201 193 187 191 195 182 176 167 186 194 205 207 196 195 193 200 211 201 228 216 216 223 244 256 220
183 187 196 203 206 183 171 174 190 201 210 217 222 208 219 219 211 220 203 203 217 216 202 205 209 197 180 185 187 185 178 187 202 184 202 201 203 194 194 216 233 227 232 243 245 244 248
Height
3109 3112 3114 3116 3118 3121 3123 3124 3126 3127 3128 3130 3132 3133 3134 3134 3134 3134 3137 3139 3138 3137 3137 3137 3138 3137 3137 3138 3140 3140 3140 3139 3139 3138 3138 3138 3138 3138 3139 3139 3139 3139 3140 3140 3140 3141 3143
3101 3103 3106 3108 3110 3112 3114 3116 3118 3119 3121 3123 3124 3126 3128 3128 3130 3131 3132 3133 3134 3134 3133 3133 3134 3135 3136 3137 3136 3137 3137 3136 3137 3136 3136 3135 3136 3135 3134 3135 3136 3136 3137 3137 3137 3139 3139
3093 3095 3097 3099 3101 3103 3106 3108 3110 3113 3114 3115 3117 3119 3121 3122 3123 3125 3127 3128 3129 3128 3129 3129 3129 3130 3133 3134 3132 3133 3133 3133 3133 3133 3133 3132 3133 3132 3131 3132 3132 3132 3133 3133 3134 3134 3134
3084 3086 3089 3091 3093 3095 3097 3100 3102 3104 3106 3108 3110 3112 3113 3115 3116 3118 3120 3122 3123 3124 3122 3125 3124 3127 3128 3128 3127 3128 3130 3130 3130 3129 3129 3129 3130 3128 3127 3128 3128 3128 3129 3130 3131 3131 3134
3074 3077 3080 3082 3085 3087 3089 3091 3094 3096 3097 3099 3102 3104 3106 3108 3110 3112 3113 3115 3116 3118 3117 3120 3119 3121 3122 3124 3123 3124 3125 3126 3126 3127 3126 3125 3126 3125 3125 3125 3125 3125 3125 3127 3129 3130 3132
3065 3068 3071 3074 3076 3080 3081 3082 3085 3087 3089 3091 3093 3096 3099 3101 3102 3103 3105 3107 3109 3112 3113 3115 3113 3120 3117 3119 3118 3120 3122 3122 3123 3123 3123 3123 3124 3121 3121 3121 3121 3122 3124 3124 3126 3129 3129
3056 3060 3063 3065 3068 3071 3073 3076 3077 3080 3082 3084 3086 3089 3091 3094 3094 3096 3098 3099 3104 3107 3106 3109 3109 3110 3108 3112 3113 3115 3116 3118 3119 3119 3119 3119 3118 3118 3119 3117 3117 3119 3121 3122 3124 3125 3126
3048 3051 3055 3058 3060 3063 3066 3068 3070 3073 3075 3077 3080 3082 3086 3086 3089 3090 3090 3091 3094 3100 3098 3100 3102 3099 3106 3105 3103 3107 3111 3114 3114 3115 3115 3115 3112 3116 3114 3113 3114 3115 3117 3119 3121 3121 3123
3039 3044 3047 3051 3054 3056 3059 3062 3064 3067 3068 3070 3072 3075 3078 3081 3083 3083 3084 3087 3091 3094 3094 3089 3095 3092 3099 3101 3095 3099 3104 3106 3108 3108 3109 3108 3110 3110 3110 3110 3110 3111 3113 3115 3116 3117 3119
3032 3036 3040 3043 3046 3048 3051 3055 3057 3060 3062 3064 3066 3067 3070 3075 3078 3078 3081 3085 3084 3087 3089 3079 3083 3084 3089 3096 3086 3089 3097 3101 3100 3102 3106 3102 3103 3104 3106 3105 3107 3107 3111 3110 3112 3114 3115
3024 3028 3032 3035 3039 3042 3045 3048 3050 3053 3056 3058 3060 3061 3065 3068 3069 3074 3077 3078 3079 3084 3090 3080 3074 3077 3077 3083 3084 3082 3089 3090 3091 3094 3099 3096 3096 3099 3099 3100 3102 3102 3105 3106 3108 3109 3110
3016 3020 3025 3029 3032 3035 3038 3041 3044 3047 3049 3050 3054 3053 3058 3061 3065 3069 3070 3072 3077 3084 3078 3073 3069 3071 3073 3075 3078 3081 3081 3084 3087 3088 3090 3089 3092 3093 3097 3097 3097 3099 3100 3102 3103 3105 3103
3010 3012 3017 3021 3024 3026 3029 3033 3037 3039 3041 3043 3047 3049 3051 3054 3059 3063 3063 3069 3077 3075 3070 3067 3067 3068 3070 3071 3074 3078 3077 3075 3077 3081 3080 3084 3084 3087 3090 3093 3093 3094 3096 3098 3100 3102 3097
3001 3004 3009 3013 3016 3019 3023 3025 3028 3031 3034 3037 3041 3043 3044 3047 3051 3054 3057 3063 3065 3060 3062 3064 3065 3064 3063 3065 3066 3072 3074 3073 3075 3077 3077 3078 3080 3080 3080 3084 3087 3088 3090 3092 3093 3096 3093
2992 2996 3000 3004 3008 3012 3014 3017 3020 3023 3027 3030 3032 3035 3037 3040 3043 3046 3050 3055 3053 3052 3054 3056 3061 3060 3059 3060 3063 3066 3066 3066 3069 3073 3077 3075 3074 3074 3074 3079 3082 3083 3084 3089 3089 3091 3092
2982 2987 2992 2995 2999 3003 3006 3008 3011 3014 3020 3022 3023 3026 3028 3033 3035 3038 3043 3041 3038 3041 3049 3052 3053 3056 3055 3056 3059 3060 3062 3061 3063 3067 3072 3073 3073 3072 3073 3075 3077 3080 3083 3084 3086 3088 3089
2972 2978 2982 2986 2990 2993 2997 3000 3003 3006 3013 3013 3013 3015 3016 3023 3024 3030 3025 3016 3023 3033 3042 3047 3047 3049 3050 3053 3054 3055 3057 3058 3058 3058 3066 3069 3073 3073 3071 3068 3069 3075 3077 3079 3082 3082 3083
2965 2969 2974 2977 2981 2984 2988 2991 2994 2998 3003 3002 3003 3004 3002 3009 3016 3012 3006 3011 3023 3026 3034 3038 3042 3042 3045 3047 3049 3049 3050 3054 3053 3053 3060 3064 3067 3068 3066 3069 3069 3069 3072 3076 3075 3079 3080
2956 2960 2967 2970 2973 2977 2979 2982 2984 2989 2991 2991 2991 2994 2990 2993 2994 2992 2998 3003 3012 3020 3024 3029 3032 3036 3039 3041 3043 3043 3046 3050 3052 3052 3054 3060 3063 3064 3065 3067 3065 3064 3066 3070 3073 3075 3076
2946 2951 2958 2962 2965 2968 2972 2973 2975 2979 2981 2982 2983 2983 2986 2978 2978 2981 2987 2991 2997 3009 3015 3022 3026 3032 3034 3033 3035 3037 3042 3044 3047 3049 3052 3055 3057 3060 3059 3058 3062 3062 3063 3067 3070 3072 3071
2938 2944 2949 2953 2956 2959 2963 2965 2966 2971 2971 2975 2974 2970 2969 2966 2969 2973 2981 2985 2989 2995 3006 3016 3019 3021 3026 3029 3030 3033 3036 3038 3040 3043 3049 3051 3055 3057 3057 3057 3058 3059 3059 3063 3066 3067 3067
2931 2938 2942 2946 2948 2951 2954 2957 2959 2960 2962 2966 2964 2962 2961 2962 2964 2969 2971 2972 2981 2990 2999 3004 3009 3015 3020 3021 3023 3025 3028 3031 3033 3039 3042 3044 3049 3053 3055 3056 3057 3058 3058 3061 3063 3063 3063
2926 2931 2935 2938 2941 2943 2946 2949 2951 2952 2955 2956 2957 2957 2958 2959 2961 2964 2963 2971 2979 2990 2996 3001 3006 3011 3013 3016 3022 3026 3028 3030 3031 3034 3039 3042 3046 3050 3051 3052 3054 3055 3054 3056 3058 3060 3061
2920 2926 2929 2932 2934 2936 2939 2942 2944 2946 2949 2952 2954 2954 2953 2955 2957 2959 2964 2972 2978 2984 2991 2997 3001 3003 3009 3015 3017 3019 3024 3025 3029 3032 3035 3037 3044 3047 3047 3049 3052 3048 3049 3052 3056 3057 3058
2915 2920 2923 2926 2928 2930 2933 2936 2938 2939 2943 2947 2949 2951 2950 2951 2954 2959 2966 2972 2978 2985 2988 2991 2994 2999 3005 3009 3013 3017 3021 3024 3026 3030 3031 3035 3040 3042 3043 3044 3045 3044 3045 3048 3050 3053 3053
2911 2915 2919 2921 2923 2925 2927 2930 2933 2934 2937 2942 2944 2946 2949 2950 2950 2960 2962 2968 2973 2978 2985 2987 2993 2997 3000 3006 3007 3010 3015 3018 3022 3025 3029 3034 3035 3039 3040 3040 3041 3041 3043 3045 3048 3049 3049
2907 2911 2914 2917 2919 2921 2923 2926 2929 2932 2933 2936 2938 2942 2945 2948 2950 2954 2956 2962 2968 2973 2981 2986 2989 2994 2997 3000 3004 3009 3012 3014 3017 3019 3024 3029 3032 3035 3036 3038 3038 3039 3041 3043 3047 3049 3045
2903 2907 2910 2913 2915 2918 2922 2925 2927 2930 2932 2933 2934 2937 2942 2944 2947 2948 2952 2957 2962 2969 2973 2980 2985 2989 2994 3000 3004 3007 3010 3012 3014 3017 3019 3024 3028 3030 3035 3037 3037 3036 3039 3041 3042 3041 3043
2898 2904 2907 2910 2913 2916 2920 2923 2925 2927 2929 2931 2933 2936 2939 2942 2945 2947 2954 2955 2962 2966 2970 2974 2982 2986 2991 2997 3001 3005 3007 3009 3011 3015 3018 3024 3024 3026 3030 3030 3030 3032 3034 3036 3038 3039 3040